EW7156 Weather Reports


Display with metric or nautical units.
time (UTC)temp
F
wind
direction
speed
MPH
gust
MPH
rain 1hr
in
rain 24hr
in
rain mn
in
humidity
%
barometer
mb
20260509223222 69 241 1.0 4.0 0.00 0.14 0.12 55 1112.2
20260509222320 69 167 1.0 4.0 0.00 0.14 0.12 56 1112.6
20260509221320 69 269 3.0 6.0 0.00 0.14 0.12 55 1112.6
20260509220319 68 164 1.0 4.0 0.00 0.14 0.12 55 1113.0
20260509215318 69 253 4.0 8.0 0.00 0.14 0.12 56 1113.0
20260509214320 69 197 0.0 4.0 0.00 0.14 0.12 57 1112.6
20260509213419 69 167 2.0 5.0 0.00 0.14 0.12 57 1113.0
20260509212421 69 275 3.0 8.0 0.00 0.14 0.12 57 1113.0
20260509211421 70 221 2.0 8.0 0.00 0.14 0.12 58 1113.0
20260509210420 69 251 1.0 4.0 0.00 0.14 0.12 57 1113.0
20260509205420 68 308 3.0 6.0 0.00 0.14 0.12 57 1113.3
20260509204420 68 228 1.0 4.0 0.00 0.14 0.12 58 1113.4
20260509203420 68 209 1.0 4.0 0.00 0.14 0.12 60 1113.4
20260509201519 67 256 5.0 8.0 0.00 0.14 0.12 60 1113.7
20260509200520 67 308 1.0 5.0 0.00 0.14 0.12 64 1113.7
20260509195520 67 217 1.0 3.0 0.00 0.14 0.12 65 1113.7
20260509194519 66 329 3.0 8.0 0.00 0.14 0.12 63 1114.1
20260509193520 66 313 1.0 4.0 0.00 0.14 0.12 65 1114.1
20260509192521 66 237 2.0 6.0 0.00 0.14 0.12 68 1114.1
20260509191522 65 215 1.0 6.0 0.00 0.14 0.12 69 1114.1
20260509190618 64 239 2.0 5.0 0.00 0.14 0.12 70 1114.5
20260509184620 63 247 2.0 4.0 0.00 0.14 0.12 74 1114.8
20260509183619 62 337 0.0 0.0 0.00 0.14 0.12 76 1114.8
20260509182621 62 138 0.0 4.0 0.00 0.14 0.12 78 1114.8
20260509180719 59 244 0.0 3.0 0.00 0.14 0.12 79 1115.2
20260509175720 60 268 2.0 6.0 0.00 0.14 0.12 80 1115.2
20260509174721 60 260 2.0 8.0 0.00 0.14 0.12 82 1115.2
20260509173720 60 343 0.0 2.0 0.00 0.14 0.12 84 1115.2
20260509172818 60 273 1.0 5.0 0.00 0.14 0.12 85 1115.2
20260509171820 60 214 0.0 2.0 0.00 0.14 0.12 86 1114.8
20260509170918 60 243 1.0 6.0 0.00 0.14 0.12 88 1114.8
20260509165919 59 270 0.0 3.0 0.00 0.14 0.12 90 1114.8
20260509164921 60 292 0.0 3.0 0.01 0.14 0.12 93 1114.8
20260509164019 59 141 1.0 4.0 0.01 0.14 0.12 92 1114.5
20260509163020 58 267 3.0 5.0 0.01 0.14 0.12 93 1114.5
20260509162019 57 191 0.0 3.0 0.01 0.14 0.12 94 1114.8
20260509161118 56 219 1.0 4.0 0.01 0.14 0.12 95 1114.5
20260509160121 55 265 1.0 4.0 0.01 0.14 0.12 95 1114.5
20260509155219 54 210 0.0 2.0 0.00 0.13 0.11 95 1114.5
20260509153319 54 241 0.0 3.0 0.01 0.13 0.11 95 1114.5
20260509152321 54 250 0.0 0.0 0.01 0.13 0.11 95 1114.5
20260509151418 54 310 0.0 2.0 0.01 0.13 0.11 95 1114.5
20260509150419 54 247 0.0 0.0 0.01 0.13 0.11 95 1114.5
20260509145422 54 185 0.0 1.0 0.01 0.13 0.11 95 1114.5
20260509144518 53 247 0.0 2.0 0.00 0.12 0.10 94 1114.5
20260509143521 53 197 0.0 2.0 0.00 0.12 0.10 95 1114.1
20260509142520 53 210 0.0 3.0 0.00 0.12 0.10 95 1114.1
20260509141619 53 170 0.0 4.0 0.01 0.12 0.10 95 1114.5
20260509140718 53 170 0.0 4.0 0.01 0.12 0.10 95 1114.5
20260509135720 53 180 1.0 4.0 0.02 0.12 0.10 95 1114.5
20260509135622 53 180 0.0 0.0 0.02 0.12 0.10 95 1114.5
20260509134718 53 241 1.0 3.0 0.02 0.12 0.10 95 1114.5
20260509132819 52 163 0.0 4.0 0.02 0.12 0.10 94 1114.5
20260509131820 52 203 0.0 2.0 0.02 0.11 0.09 94 1114.8
20260509125919 52 159 0.0 2.0 0.02 0.10 0.08 94 1114.8
20260509124920 52 202 0.0 2.0 0.03 0.10 0.08 94 1114.8
20260509123920 52 164 1.0 3.0 0.03 0.10 0.08 94 1114.8
20260509121919 52 202 0.0 2.0 0.03 0.09 0.07 94 1114.8
20260509120920 51 182 1.0 3.0 0.04 0.09 0.06 93 1114.8
20260509115920 51 175 0.0 3.0 0.04 0.08 0.06 93 1114.8
20260509115018 51 116 1.0 4.0 0.03 0.07 0.05 93 1114.9
20260509114018 51 198 1.0 3.0 0.03 0.07 0.05 93 1114.5
20260509113018 51 235 0.0 2.0 0.02 0.06 0.04 92 1114.5
20260509112019 52 202 0.0 2.0 0.02 0.06 0.04 92 1114.5
20260509111018 52 159 1.0 3.0 0.01 0.05 0.03 92 1114.5
20260509110020 52 240 1.0 4.0 0.00 0.04 0.02 92 1114.5
20260509104019 51 94 0.0 1.0 0.01 0.04 0.02 92 1114.1
20260509103118 51 152 1.0 3.0 0.01 0.04 0.02 92 1114.1
20260509101120 51 202 1.0 4.0 0.01 0.04 0.02 92 1114.5
20260509100120 51 209 1.0 3.0 0.01 0.04 0.02 92 1114.5
20260509095219 51 153 1.0 4.0 0.01 0.04 0.02 92 1114.5
20260509094221 51 162 1.0 3.0 0.00 0.03 0.01 92 1114.5
20260509093220 51 171 1.0 5.0 0.00 0.03 0.01 92 1114.5
20260509091320 51 172 1.0 3.0 0.00 0.03 0.01 92 1114.8
20260509090320 51 147 0.0 3.0 0.00 0.03 0.01 93 1114.8
20260509085419 50 186 1.0 3.0 0.00 0.03 0.01 93 1114.8
20260509084419 50 189 0.0 3.0 0.00 0.03 0.01 93 1115.2
20260509082418 50 157 0.0 1.0 0.00 0.03 0.01 93 1115.2
20260509081418 51 315 0.0 0.0 0.00 0.03 0.01 93 1115.2
20260509075519 51 315 0.0 0.0 0.00 0.03 0.01 93 1114.8
20260509074519 51 315 0.0 0.0 0.00 0.03 0.01 93 1114.8
20260509073519 51 315 0.0 0.0 0.00 0.03 0.01 92 1114.8
20260509072519 50 112 0.0 0.0 0.00 0.03 0.01 91 1114.8
20260509071520 51 112 0.0 0.0 0.00 0.03 0.01 92 1114.5
20260509070519 51 112 0.0 0.0 0.00 0.03 0.01 92 1114.5
20260509065519 51 157 0.0 1.0 0.00 0.03 0.01 92 1114.5
20260509064520 51 167 0.0 2.0 0.00 0.03 0.01 92 1114.8
20260509063519 50 133 0.0 2.0 0.00 0.03 0.01 91 1114.7
20260509062618 51 146 0.0 2.0 0.00 0.03 0.01 93 1114.8
20260509061618 51 149 0.0 3.0 0.00 0.03 0.01 92 1115.2
20260509054619 50 112 0.0 0.0 0.00 0.03 0.01 92 1115.2
20260509052719 50 112 0.0 0.0 0.00 0.03 0.01 92 1115.6
20260509051718 50 112 0.0 0.0 0.01 0.03 0.01 92 1116.0
20260509050721 51 112 0.0 0.0 0.01 0.03 0.01 92 1116.0
20260509045720 51 112 0.0 0.0 0.01 0.03 0.01 91 1116.0
20260509044719 51 112 0.0 0.0 0.01 0.03 0.01 91 1116.0
20260509043720 51 112 0.0 0.0 0.01 0.03 0.01 91 1116.0
20260509042719 51 112 0.0 0.0 0.01 0.03 0.01 91 1116.0
20260509041720 51 112 0.0 1.0 0.00 0.02 0.00 91 1116.4
20260509040818 51 112 0.0 0.0 0.00 0.02 0.00 90 1116.4
20260509035914 51 90 0.0 0.0 0.00 0.02 0.02 90 1116.8
20260509035014 51 90 0.0 0.0 0.00 0.02 0.02 90 1116.8
20260509033018 52 112 0.0 0.0 0.01 0.02 0.02 89 1117.1
20260509031016 52 337 0.0 0.0 0.01 0.02 0.02 87 1117.4
20260509025015 52 337 0.0 0.0 0.02 0.02 0.02 87 1117.5
20260509024017 52 337 0.0 0.0 0.02 0.02 0.02 85 1117.9
20260509023018 52 112 0.0 0.0 0.01 0.01 0.01 84 1117.9
20260509022014 52 112 0.0 0.0 0.01 0.01 0.01 83 1117.9
20260509015117 53 112 0.0 0.0 0.00 0.00 0.00 79 1117.5
20260509014216 53 112 0.0 0.0 0.00 0.00 0.00 79 1117.1
20260509013216 53 112 1.0 3.0 0.00 0.00 0.00 78 1117.1
20260509012217 53 112 0.0 0.0 0.00 0.00 0.00 77 1117.1
20260509011216 53 112 0.0 0.0 0.00 0.00 0.00 74 1116.5
20260509010315 54 112 0.0 0.0 0.00 0.00 0.00 74 1116.4
20260509005315 54 112 0.0 0.0 0.00 0.00 0.00 72 1116.4
20260509003316 55 67 0.0 0.0 0.00 0.00 0.00 71 1116.3
20260509002414 55 112 0.0 2.0 0.00 0.00 0.00 71 1116.0
20260509001415 55 106 1.0 2.0 0.00 0.00 0.00 69 1116.4
20260509000418 55 90 0.0 2.0 0.00 0.00 0.00 69 1116.0
20260508235415 55 112 1.0 2.0 0.00 0.00 0.00 68 1116.0
20260508234415 55 89 1.0 3.0 0.00 0.00 0.00 68 1116.4
20260508233415 56 112 0.0 1.0 0.00 0.00 0.00 67 1116.4
20260508231416 56 112 0.0 1.0 0.00 0.00 0.00 65 1116.4
20260508224416 56 112 0.0 0.0 0.00 0.00 0.00 63 1116.6